{"data":{"norad_id":47229,"epoch":"2026-09-20T23:39:01.492416Z","epoch_age_seconds":37434,"freshness":"FRESH","line1":"1 47229U 20091C   26263.98543394  .00000052  00000+0  30792-3 0  9990","line2":"2 47229  82.4984 242.4662 0021228 330.5584  29.4298 12.42894803262926","mean_motion":12.42894803,"eccentricity":0.0021228,"inclination_deg":82.4984,"raan_deg":242.4662,"arg_perigee_deg":330.5584,"mean_anomaly_deg":29.4298,"bstar":0.00030792,"rev_number":26292,"period_min":115.85855830471,"perigee_km":1477.6438520602,"apogee_km":1511.0673065549,"semimajor_km":7872.4925793075,"source":"CELESTRAK","updated_at":"2026-09-21T09:00:07.474743Z"}}